[[{"header":{"parameterUnit":"m.s-1","parameterCategory":1,"la1":30.2991,"la2":30.254,"lo1":-89.0895,"lo2":-89.0444,"dy":0.0017,"dx":0.0017,"nx":28,"ny":28,"refTime":"2024-05-05T09:00:00:Z","depth":0,"parameterNumber":2,"parameterNumberName":"U-component_of_WINDS"},"data":[0,0,0,0,0,0,0,0,0,0,0,0,0,0,0,0,0,0,0,0,0,0,0,0,0,0,0,0,0,0,0,0,0,0,0,0,0,0,0,0,0,0,0,0,0,0,0,0,0,0,0,0,0,0,0,0,0,0,-1.4056,-1.4056,0,-1.41,-1.41,-1.4101,-1.4098,-1.4098,-1.4097,-1.4096,-1.4142,-1.4144,-1.4145,0,0,0,0,0,0,0,0,0,0,0,0,0,-1.3971,-1.3972,-1.4056,-1.4056,-1.4057,-1.41,-1.41,-1.4101,-1.4098,-1.4097,-1.4097,-1.4096,-1.4141,-1.4143,-1.4146,0,0,0,0,0,0,0,0,0,0,0,0,0,-1.401,-1.3973,-1.4056,-1.4061,-1.4062,-1.4099,-1.41,-1.4101,-1.4098,-1.4097,-1.4096,-1.4096,-1.4141,-1.4143,-1.4146,-1.4182,0,0,-1.4154,-1.4155,0,0,0,0,0,0,0,0,-1.4008,-1.4014,-1.4059,-1.406,-1.4061,-1.4092,-1.4087,-1.4128,-1.4099,-1.4084,-1.4096,-1.4095,-1.4126,-1.413,-1.414,-1.4184,-1.4186,-1.4154,-1.4156,-1.4157,-1.4158,0,0,0,0,0,0,0,-1.4005,-1.4012,-1.4073,-1.406,-1.4061,-1.4061,-1.4066,-1.4095,-1.411,-1.4086,-1.4086,-1.4091,-1.4127,-1.4138,-1.4141,-1.4187,-1.4154,-1.4157,-1.4158,-1.4159,-1.4262,-1.4263,0,0,0,0,0,0,-1.4001,-1.4009,-1.4072,-1.4074,-1.4032,-1.4063,-1.4069,-1.4083,-1.411,-1.4113,-1.4091,-1.409,-1.4134,-1.4138,-1.4143,-1.4187,-1.4157,-1.416,-1.4161,-1.4261,-1.4262,-1.4264,0,0,0,0,0,0,-1.4,-1.4007,-1.407,-1.4042,-1.405,-1.4066,-1.4083,-1.4085,-1.4096,-1.4114,-1.4117,-1.41,-1.4133,-1.4139,-1.4172,-1.4189,-1.4161,-1.4163,-1.426,-1.4261,-1.4263,-1.4275,0,0,0,0,0,0,-1.3997,-1.4006,-1.402,-1.4042,-1.4051,-1.4098,-1.4084,-1.4086,-1.4101,-1.41,-1.4123,-1.4126,-1.4133,-1.4168,-1.4175,-1.4192,-1.4166,-1.4258,-1.426,-1.4262,-1.4273,-1.4277,-1.428,0,0,0,0,0,-1.3994,-1.4022,-1.4021,-1.4028,-1.4069,-1.4099,-1.4104,-1.4111,-1.4102,-1.4116,-1.4128,-1.4125,-1.4186,-1.4172,-1.4179,-1.4197,-1.4257,-1.426,-1.4262,-1.4272,-1.4276,-1.428,0,0,0,0,0,0,-1.4001,-1.4025,-1.4024,-1.4059,-1.4077,-1.4099,-1.4116,-1.4116,-1.4137,-1.4135,-1.4143,-1.4149,-1.4182,-1.4193,-1.4177,-1.4233,-1.422,-1.4224,-1.4225,-1.4229,-1.4233,-1.4229,-1.4168,0,0,0,0,0,-1.4007,-1.4029,-1.4049,-1.4078,-1.4087,-1.41,-1.4114,-1.4118,-1.4137,-1.4144,-1.4158,-1.4177,-1.42,-1.4216,-1.4238,-1.4275,-1.428,-1.4291,-1.4294,-1.4297,-1.4301,-1.4321,-1.4326,-1.4272,-1.4272,-1.4272,0,0,-1.4019,-1.4034,-1.4048,-1.408,-1.4094,-1.4118,-1.4107,-1.4132,-1.4149,-1.4148,-1.418,-1.4191,-1.4213,-1.4248,-1.4264,-1.4258,-1.4317,-1.43,-1.4302,-1.4304,-1.4324,-1.433,-1.4334,-1.4273,-1.4273,-1.4273,0,0,-1.4052,-1.4066,-1.4092,-1.4107,-1.4129,-1.4137,-1.4144,-1.4165,-1.4173,-1.4205,-1.4205,-1.4226,-1.4265,-1.4281,-1.4294,-1.4334,-1.4332,-1.4341,-1.4359,-1.4379,-1.4383,-1.4387,-1.4401,-1.4406,-1.4344,-1.4344,-1.4344,0,-1.4065,-1.4099,-1.4106,-1.4131,-1.4146,-1.4146,-1.4172,-1.4186,-1.4214,-1.4224,-1.4217,-1.4267,-1.4282,-1.4321,-1.433,-1.4341,-1.4349,-1.4338,-1.4382,-1.4386,-1.4389,-1.4403,-1.4409,-1.4345,-1.4345,-1.4345,-1.4345,0,-1.4114,-1.4138,-1.4156,-1.4183,-1.4199,-1.4225,-1.4236,-1.4252,-1.4255,-1.4264,-1.4297,-1.4315,-1.4341,-1.435,-1.4353,-1.439,-1.4385,-1.438,-1.4367,-1.4395,-1.4409,-1.4414,-1.4346,-1.4346,-1.4346,-1.4346,0,0,-1.4153,-1.4183,-1.419,-1.4202,-1.4226,-1.4245,-1.4271,-1.4297,-1.431,-1.433,-1.4352,-1.4386,-1.4381,-1.4396,-1.44,-1.4418,-1.4449,-1.441,-1.4411,-1.4417,-1.4491,-1.4494,-1.45,-1.4448,-1.4449,-1.445,-1.4489,0,-1.4189,-1.4235,-1.4242,-1.4283,-1.4305,-1.4306,-1.4328,-1.4346,-1.4355,-1.4376,-1.4387,-1.4411,-1.4403,-1.4412,-1.4429,-1.4441,-1.4464,-1.4439,-1.4469,-1.447,-1.4464,-1.4507,-1.4512,-1.4547,-1.4494,-1.4495,-1.4495,0,-1.4238,-1.4258,-1.4301,-1.4322,-1.4332,-1.4352,-1.4376,-1.4396,-1.4416,-1.4422,-1.4438,-1.4441,-1.4468,-1.4454,-1.4492,-1.4475,-1.4488,-1.4496,-1.4497,-1.4501,-1.4484,-1.4512,-1.4559,-1.4564,-1.4504,-1.4503,-1.4502,0,-1.4263,-1.4301,-1.4331,-1.4342,-1.4367,-1.4381,-1.4393,-1.4412,-1.4427,-1.4447,-1.4457,-1.4481,-1.4494,-1.4513,-1.4522,-1.4511,-1.456,-1.4546,-1.4565,-1.4565,-1.4576,-1.4575,-1.4626,-1.4584,-1.4584,-1.4584,-1.4584,0,-1.4303,-1.4329,-1.4343,-1.4362,-1.4391,-1.4399,-1.4428,-1.4439,-1.4456,-1.4477,-1.4479,-1.4499,-1.451,-1.4531,-1.4539,-1.4569,-1.4575,-1.4581,-1.4582,-1.4581,-1.458,-1.4589,-1.4587,-1.4585,-1.4585,-1.4585,-1.4584,0,-1.4335,-1.4346,-1.4379,-1.44,-1.4406,-1.4427,-1.4445,-1.4464,-1.4473,-1.45,-1.4507,-1.4522,-1.4547,-1.4558,-1.459,-1.4595,-1.463,-1.463,-1.4623,-1.4624,-1.4642,-1.464,-1.4701,-1.4709,-1.4662,-1.4662,-1.4663,0,-1.436,-1.438,-1.4403,-1.4418,-1.4429,-1.4452,-1.4467,-1.4476,-1.4491,-1.4515,-1.4531,-1.4557,-1.4578,-1.4619,-1.4633,-1.4657,-1.4657,-1.4677,-1.4661,-1.4658,-1.4658,-1.4656,-1.4659,-1.468,-1.468,-1.468,-1.4681,0,-1.4404,-1.4408,-1.4429,-1.4452,-1.447,-1.4489,-1.4507,-1.4519,-1.453,-1.4548,-1.4574,-1.459,-1.4622,-1.4648,-1.4673,-1.4685,-1.4685,-1.4686,-1.4691,-1.469,-1.4685,-1.4688,-1.4631,-1.4684,-1.4684,-1.4684,-1.4683,-1.4683,-1.4433,-1.4451,-1.447,-1.4494,-1.4509,-1.4526,-1.4544,-1.4556,-1.4577,-1.4604,-1.4608,-1.4636,-1.4655,-1.4689,-1.4702,-1.4724,-1.4719,-1.4728,-1.473,-1.4732,-1.4733,-1.4682,-1.4729,-1.4729,-1.4729,-1.4729,-1.4728,0,-1.4477,-1.4489,-1.4511,-1.4536,-1.4555,-1.4553,-1.4573,-1.4589,-1.4614,-1.4632,-1.4652,-1.4682,-1.4707,-1.4723,-1.4748,-1.4763,-1.4763,-1.4769,-1.4768,-1.4771,-1.4736,-1.4728,-1.4768,-1.4768,-1.4768,-1.4768,-1.4768,-1.4768,-1.4502,-1.4532,-1.4539,-1.4576,-1.4588,-1.4615,-1.4627,-1.4643,-1.4657,-1.4691,-1.4711,-1.4721,-1.4738,-1.4765,-1.4787,-1.4791,-1.48,-1.4806,-1.481,-1.4777,-1.4773,-1.4769,-1.4762,-1.4808,-1.4808,-1.4843,-1.4843,-1.4844]},{"header":{"parameterUnit":"m.s-1","parameterCategory":1,"la1":30.2991,"la2":30.254,"lo1":-89.0895,"lo2":-89.0444,"dy":0.0017,"dx":0.0017,"nx":28,"ny":28,"refTime":"2024-05-05T09:00:00:Z","depth":0,"parameterNumber":3,"parameterNumberName":"V-component_of_WINDS"},"data":[0,0,0,0,0,0,0,0,0,0,0,0,0,0,0,0,0,0,0,0,0,0,0,0,0,0,0,0,0,0,0,0,0,0,0,0,0,0,0,0,0,0,0,0,0,0,0,0,0,0,0,0,0,0,0,0,0,0,6.0486,6.0486,0,6.0537,6.0537,6.0538,6.0483,6.048,6.0478,6.0476,6.0526,6.0529,6.0532,0,0,0,0,0,0,0,0,0,0,0,0,0,6.0337,6.034,6.0486,6.0486,6.0487,6.0537,6.0537,6.0538,6.0483,6.048,6.0478,6.0475,6.0524,6.0528,6.0532,0,0,0,0,0,0,0,0,0,0,0,0,0,6.0396,6.0341,6.0486,6.0466,6.0464,6.0536,6.0537,6.0538,6.0483,6.048,6.0477,6.0474,6.0523,6.0528,6.0533,6.0626,0,0,6.0548,6.055,0,0,0,0,0,0,0,0,6.0393,6.0402,6.0468,6.0467,6.0466,6.05,6.0503,6.0568,6.0484,6.0476,6.0476,6.0473,6.0519,6.0524,6.0541,6.0628,6.063,6.0548,6.0551,6.0553,6.0555,0,0,0,0,0,0,0,6.0389,6.0399,6.0506,6.0469,6.0468,6.0453,6.0458,6.0515,6.0515,6.0477,6.0473,6.048,6.0518,6.0536,6.0542,6.0631,6.0548,6.0552,6.0555,6.0557,6.0796,6.0799,0,0,0,0,0,0,6.0387,6.0396,6.0504,6.0507,6.0421,6.0458,6.0464,6.0492,6.0514,6.0514,6.0482,6.0477,6.0529,6.0536,6.0543,6.0653,6.0553,6.0558,6.0561,6.0793,6.0797,6.08,0,0,0,0,0,0,6.0385,6.0398,6.0502,6.0451,6.0463,6.0464,6.0497,6.0495,6.0513,6.0518,6.0518,6.0501,6.0527,6.0536,6.0606,6.0654,6.056,6.0564,6.0789,6.0794,6.0799,6.0874,0,0,0,0,0,0,6.0381,6.0397,6.0434,6.0452,6.0466,6.0565,6.05,6.0498,6.0522,6.0515,6.0536,6.0536,6.0525,6.0599,6.0611,6.0659,6.0568,6.0784,6.0791,6.0797,6.0867,6.0881,6.0892,0,0,0,0,0,6.0375,6.0452,6.0436,6.0449,6.0512,6.0568,6.0576,6.0563,6.0526,6.0562,6.0565,6.0535,6.0647,6.0606,6.0619,6.067,6.0781,6.0789,6.0797,6.0861,6.0878,6.0892,0,0,0,0,0,0,6.0439,6.0454,6.0436,6.0522,6.0544,6.0559,6.0604,6.0582,6.0614,6.0607,6.0588,6.0593,6.0667,6.0675,6.063,6.076,6.0708,6.0718,6.0752,6.0768,6.0781,6.0777,6.0572,0,0,0,0,0,6.0463,6.0509,6.0519,6.0593,6.0606,6.0603,6.0627,6.0615,6.0637,6.0646,6.0655,6.0677,6.0716,6.0743,6.0779,6.0868,6.087,6.0908,6.0921,6.0932,6.0941,6.0987,6.1003,6.0826,6.0826,6.0825,0,0,6.0513,6.0527,6.0557,6.0607,6.0623,6.0669,6.0611,6.0663,6.0697,6.0654,6.072,6.0727,6.075,6.0829,6.0864,6.0838,6.0991,6.0942,6.095,6.0953,6.0996,6.1013,6.1028,6.0831,6.083,6.0829,0,0,6.0627,6.0643,6.0706,6.0723,6.0749,6.0746,6.0761,6.0779,6.0782,6.0849,6.0817,6.0856,6.0925,6.0942,6.096,6.108,6.1053,6.1093,6.1159,6.1204,6.1218,6.123,6.1272,6.1287,6.1102,6.1102,6.1102,0,6.0686,6.0756,6.0741,6.0795,6.0817,6.0781,6.0844,6.0861,6.0896,6.0912,6.0882,6.0967,6.098,6.1062,6.1091,6.1107,6.1123,6.109,6.1217,6.123,6.1241,6.128,6.1296,6.1106,6.1106,6.1106,6.1105,0,6.0826,6.0875,6.0922,6.0958,6.0986,6.1044,6.1037,6.1066,6.1051,6.1051,6.1118,6.1133,6.1171,6.119,6.1176,6.1269,6.1252,6.1221,6.1167,6.1263,6.1299,6.1314,6.1113,6.1111,6.111,6.1109,0,0,6.0983,6.1009,6.1027,6.1042,6.1067,6.1103,6.1159,6.1197,6.1222,6.1248,6.1293,6.1352,6.1322,6.1342,6.133,6.1369,6.1462,6.1332,6.1333,6.1355,6.1564,6.1588,6.1606,6.1444,6.1447,6.1449,6.1562,0,6.1097,6.1195,6.1183,6.1276,6.132,6.1285,6.1333,6.1353,6.1354,6.139,6.1391,6.1433,6.1391,6.1403,6.1441,6.1443,6.1503,6.1434,6.1485,6.1487,6.148,6.1625,6.165,6.1756,6.1576,6.1579,6.1581,0,6.1245,6.1276,6.1373,6.139,6.1407,6.1451,6.1485,6.152,6.1541,6.1539,6.1561,6.1541,6.1595,6.1541,6.1615,6.1568,6.1588,6.1592,6.1596,6.1599,6.1539,6.1632,6.1789,6.1805,6.1603,6.1601,6.16,0,6.1348,6.1414,6.1481,6.1495,6.1516,6.1547,6.1557,6.1575,6.1598,6.1627,6.1641,6.1676,6.1695,6.1721,6.171,6.1672,6.1786,6.1731,6.1784,6.1785,6.181,6.1808,6.1972,6.1824,6.1823,6.1823,6.1823,0,6.1477,6.1538,6.1528,6.1569,6.1635,6.1619,6.1685,6.1691,6.1706,6.1747,6.1718,6.1756,6.174,6.1777,6.1769,6.183,6.1839,6.1838,6.1835,6.184,6.184,6.1853,6.1845,6.1827,6.1826,6.1825,6.1825,0,6.1605,6.16,6.167,6.1684,6.1689,6.1737,6.1748,6.1786,6.1784,6.1836,6.1847,6.1844,6.1886,6.1878,6.1924,6.1918,6.1995,6.1983,6.1988,6.1985,6.2039,6.2033,6.2216,6.2238,6.2076,6.2077,6.2079,0,6.1687,6.1733,6.1752,6.1777,6.179,6.1831,6.1854,6.184,6.1865,6.1891,6.1926,6.1965,6.1995,6.2063,6.2065,6.2099,6.2087,6.2149,6.2092,6.2096,6.2087,6.2085,6.2089,6.216,6.2162,6.2163,6.2164,0,6.1835,6.183,6.1865,6.19,6.1929,6.1955,6.1979,6.2001,6.1988,6.2018,6.206,6.2084,6.213,6.2169,6.2201,6.2209,6.2185,6.2182,6.2196,6.2202,6.2203,6.2202,6.2018,6.2178,6.2177,6.2176,6.2175,6.2174,6.1942,6.198,6.1999,6.2039,6.2055,6.2078,6.2113,6.2116,6.2152,6.2189,6.2177,6.2225,6.2243,6.2283,6.2295,6.2331,6.2308,6.2329,6.2334,6.2339,6.2346,6.2197,6.2337,6.2337,6.2336,6.2336,6.2336,0,6.2087,6.2097,6.2134,6.2168,6.2199,6.2173,6.2197,6.2225,6.2267,6.2286,6.2316,6.2364,6.2401,6.2405,6.244,6.2468,6.2458,6.2478,6.2475,6.2477,6.2365,6.2349,6.2485,6.2485,6.2485,6.2485,6.2485,6.2485,6.2166,6.223,6.2227,6.2297,6.2307,6.2354,6.237,6.2389,6.2404,6.2459,6.249,6.2492,6.2505,6.2539,6.2572,6.2572,6.2586,6.261,6.2606,6.25,6.2485,6.2471,6.2456,6.2613,6.2613,6.2715,6.2716,6.2717]}]]